Погода Красные Баки

Погода Красные Баки : погода сейчас, прогноз погоды и архив. Всё, что Вы хотите узнать о погоде Красные Баки!

Хотите узнать прогноз погоды Красные Баки? Тогда Вам сюда: Погода Красные Баки

Поиск расширенной информации на нашем сайте:

Другие новости

Новости СМИ2

Главная страница сайта

Новости сайта

03.07.2017

Напоминаем, что на нашем специализированном сайте Метеоцентр.Азия вы можете получить высокодетализированные автоматические прогнозы погоды по пунктам России, СНГ и мира в авиационном формате (включающие направление и скорость ветра, видимость, явления погоды, количество и форму облачности, нижнюю и верхнюю границу облачности).


Погода Красные Баки - сегодня

Время (UTC), дата Ветер
(°,м/с) 
Видим.   Явления Облачность Т
(°С)
Тd
(°С)
f(%) Тe
(°С)
Pmin
(гПа)
dP
(гПа)
Po
(мм)
O2
(г/м3)
Тmin Tmax R s Состояние
почвы
15 10.06.18 320 (СЗ) 2-5{11}  20000 м  {ливн. осадки}  9/8 1000 м средняя 
[Cu med, cong|Ac trans]
+10.6 +4.8 67 +11  1009.3  0.1  747  289    +12.3  0.7     
03 11.06.18 290 (З) 1-3{04}  20000 м    6/0 верхняя 
[Ci fib]
+7.7 +3.4 74 +9  1011.3  0.7  748  293  +3.2        влажная 
15 11.06.18 270 (З) 2-5{09}  20000 м    8/4 1000 м верхняя 
[Sc|Ci fib]
+15.9 +2.3 40 +17  1009.6  -0.6  747  284    +16       
03 12.06.18 200 (Ю) 2-5{05}  20000 м  в посл. час ливневой дождь  10/0 средняя 
[Ac As]
+9.3 +6.2 81 +9  1006.8  -1.3  745  289  +9.2    0.3    влажная 
15 12.06.18 190 (Ю) 3-7{08}  20000 м  {ливн. осадки}  10/10 1000 м 
[Sc]
+14.9 +11.5 80 +18  1002.1  -1.7  742  281    +15.8  0.4     
03 13.06.18 220 (ЮЗ) 4-6{08}  20000 м    10/10 1000 м 
[Sc]
+15.1 +11.8 81 +19  996  -0.2  737  279  +14.8    0.6    мокрая 
15 13.06.18 330 (СЗ) 5-10{12}  25000 м  слаб. ливневой дождь  10/10 1000 м 
[Sc]
+12.7 +11.2 91 +15  1002.1  4.7  742  283    +19     
03 14.06.18 340 (С) 3-6{06}  20000 м    10/10 1000 м 
[Sc]
+8.3 +6.4 88 +8  1011.5  1.9  749  292  +7.5    0.4    мокрая 
15 14.06.18 310 (СЗ) 3-9{09}  20000 м    6/6 1000 м 
[Sc diur, vesp]
+13.9 +2.3 45 +14  1015.3  1.1  752  288    +14.1  0.0     
03 15.06.18 330 (СЗ) 1-3{03}  20000 м    3/0 верхняя 
[Ci fib]
+7.5 +3 73 +8  1020.3  755  296  +2.1        мокрая 
15 15.06.18 330 (СЗ) 2-4{08}  20000 м    6/6 1000 м 
[Cu med, cong]
+15.9 +3.6 44 +17  1018.3  -0.3  754  286    +17       
03 16.06.18 010 (С) 1-1{04}  20000 м    3/0 верхняя 
[Ci fib]
+11.9 +6.4 69 +13  1020.4  0.7  755  291  +5.6        влажная 
18 16.06.18 270 (З) 2-2{06}  20000 м    ясно 
+15.6 +7.1 57 +16  1018.9  754  286           
21 16.06.18 260 (З) 1-2{03}  10 км    ясно 
+11.1 +6.2 72 +12  1018.8  0.1  754  291           
03 17.06.18 310 (СЗ) 1-3{03}  20000 м    3/0 верхняя 
[Ci fib]
+14.7 +7.4 62 +16  1018.8  -0.2  754  287  +7.8        влажная 
15 17.06.18 320 (СЗ) 3-7{10}  20000 м    8/8 1000 м 
[Cu med, cong]
+26.3 +7.6 30 +26  1014.5  -0.3  751  275    +26.4       
03 18.06.18 350 (С) 1-1{02}  20000 м    4/3 1000 м средняя 
[Cu med, cong|Ac trans]
+17.2 +12.5 74 +24  1015.7  752  283  +13.9        влажная 
15 18.06.18 060 (СВ) 1-2{05}  20000 м    8/8 1000 м 
[Cu med, cong]
+27.9 +5 23 +28  1012.1  -1.2  750  273    +28       
03 19.06.18 240 (ЮЗ) 1-1{02}  20000 м    8/0 средняя 
[Ac trans]
+15.7 +12.4 81 +22  1011.9  -0.4  749  283  +14.4        влажная 
06 19.06.18 240 (ЮЗ) 1-2{03}  20000 м    ясно 
+25.5 +14.7 51 +34  1010.7  -0.8  749  273           
15 19.06.18 120 (ЮВ) 3-6{08}  20000 м  гроза без осадков  6/6 1000 м кучево-дожд. 
[Cb calv]
+25.5 +14.7 51 +34  1006.7  -1.1  746  272    +25.8  0.0     
03 20.06.18 240 (ЮЗ) 3-5{06}  20000 м  в посл. час ливневой дождь  10/10 1000 м 
[Sc]
+17.3 +14.7 85 +26  1000.7  -2.1  741  278  +17.2    0.0    влажная 
15 20.06.18 280 (З) 5-10{14}  20000 м    8/6 1000 м средняя 
[Cu med, cong|As trans]
+19.7 +4.6 37 +20  1001.6  0.1  742  278    +19.8     
03 21.06.18 260 (З) 5-11{11}  20000 м    3/0 верхняя 
[Ci fib]
+13.1 +7.8 70 +12  1003.3  0.2  743  284  +10.7    0.0    мокрая 
15 21.06.18 290 (З) 5-13{16}  20000 м    6/6 1000 м 
[Cu med, cong]
+21.1 +5.1 35 +21  1004.5  1.1  744  277    +21.2       
Время (UTC), дата Ветер
(°,м/с) 
Видим.   Явления Облачность Т
(°С)
Тd
(°С)
f(%) Тe
(°С)
Pmin
(гПа)
dP
(гПа)
Po
(мм)
O2
(г/м3)
Тmin Tmax R s Состояние
почвы

Для получения пояснительной информации подведите курсор к названию столбца.

ПОГОДА Красные Баки - архив

Всё, что Вы хотите узнать о погоде Красные Баки - удобно и подробно!

Выберите нужную дату (начиная с 1 января 2015* года) и нажмите кнопку "Найти".
Будут отображены архивные сводки погоды по пункту Красные Баки, начиная с указанной даты.


Отображать данные в формате CSV (для использования в таблицах Excel)


Внимание! Наш архив погоды предназначен исключительно для личного некоммерческого использования в познавательных целях. Если Вам необходимы официальные справки о состоянии погоды (для производственных, юридических, коммерческих и т.п. целей), обращайтесь в органы Росгидромета.

*Примечание: данная дата относится к архиву по метеостанциям СССР (Россия, СНГ, Балтия).
Архив по метеостанциям Зарубежной Европы и Азии (кроме Китая) хранится 10 дней, по другим регионам земного шара (Китай, Африка, Америка, Австралия, Океания) - 1 день.

Красные Баки - район местоположения метеостанции


Название, широта, долгота, высота метеостанции:
Красные Баки 57.1°ш. 45.2°д. 110 м над ур. моря [Российская Федерация]

Дополнительная информация

В oтличие oт бoльшинства пoгoдных сайтoв мы публикуем пoдрoбную метеoинфoрмацию в детальнoм прoфессиoнальнoм фoрмате.

Характеристики температуры и влажнoсти вoздуха измеряются на высoте 2 м в тени вдали oт зданий и деревьев.
Скoрoсть ветра измеряется на высoте 10 м (на урoвне рoста челoвека скoрoсть ветра ниже в 1.5-2 раза). Если метеoстанция нахoдится в гoрoде или в лесу, тo скoрoсть ветра занижена на 2-4 м/с пo сравнению с oткрытым местoм. Скoрoсть ветра над акватoриями крупных рек и oзёр, а также на вершинах хoлмoв на 2-5 м/с выше, чем в oбычных услoвиях.
Атмoсфернoе давление в разных тoчках местнoсти мoжет значительнo oтличаться oт давления на метеoстанции, в зависимoсти oт услoвий рельефа (при пoдъёме на 10 м давление пoнижается примернo на 1 мм рт.ст.).